Погода в Интернациональном

Россия / Кабардино-Балкарская Республика     43°28′49″N   44°07′05″E
темп.,
°C
ветер,
м/с
пор.,
м/с
влажн.,
%
обл.,
%
осадки,
мм/ч
давл.,
гПа
погр.,
м
8 мая, сб
сб800:00+12ююз227413 0.0 101914
03:00+11ююз11771 0.0 101911
06:00+12ю22755 0.0 101846
09:00+18в3357100 0.0 1016651
12:00+22в444642 0.0 10141468
15:00+22всв3452100 0.0 1013993
18:00+20всв356695 0.0 1013106
21:00+14юв11744 0.0 101211
9 мая, вс
вс900:00+12з22855 0.0 101113
03:00+11з118462 0.0 101011
06:00+13зсз1179100 0.0 101035
09:00+18ссз3463100 0.0 1009523
12:00+22с335843 0.0 10081213
15:00+21с776398 0.1 10081278
18:00+8ссз91985100 4.2 1015856
21:00+7ссз81786100 9.4 10201069
10 мая, пн
пн1000:00+8сз61380100 0.8 1021834
03:00+8з3979100 0.9 1023518
06:00+7ю348742 0.0 1023122
09:00+11сз3755100 0.1 10221784
12:00+13сз135649 0.2 10211341
15:00+13з2258100 0.5 10201194
18:00+9сз4779100 0.8 1021446
21:00+7юз3490100 3.3 1023147
11 мая, вт
вт1100:00+7ююз3489100 0.2 1021138
03:00+7ю2287100 0.2 102159
06:00+7юв248963 0.0 1020183
09:00+12вюв5566100 0.0 10191325
12:00+14всв555598 0.1 10181651
15:00+15всв4553100 0.1 10171388
18:00+14св247283 0.0 1017247
21:00+11з227599 0.1 101939
12 мая, ср
ср1200:00+10зсз0177100 0.0 101810
03:00+8з11855 0.0 101811
06:00+8сз11850 0.0 101883
09:00+14всв23674 0.0 1017817
12:00+17всв335799 0.0 10161445
15:00+18всв3359100 0.0 10151268
18:00+17всв2370100 0.0 1015159
21:00+13ююз11816 0.0 101511